DLH1MM EDDF-EDDS

Flight info

Callsign DLH1MM
Flight time 0h 21m
Altitude 21000
Route ANEKI2L ANEKI Y163 NEKLO Y171 INKAM N850 KRH T128 BADSO BADSO2A
Aircraft A319/M-SDE3FGHIRWY/LB1

Departure

Time 2026-05-08 05:05
Airport Frankfurt Main Airport (EDDF)

Arrival

Time 2026-05-08 05:26
Airport Stuttgart Airport (EDDS)
Time Latitude Longitude Altitude Speed Heading
2026-05-08 03:45 50.03818 8.54585 348 ft 0 kts 160°
2026-05-08 05:00 50.03817 8.54585 347 ft 1 kts 160°
2026-05-08 05:00 50.03805 8.54592 355 ft 3 kts 160°
2026-05-08 05:01 50.03775 8.54609 347 ft 6 kts 160°
2026-05-08 05:01 50.03733 8.54618 345 ft 7 kts 198°
2026-05-08 05:01 50.03708 8.54534 344 ft 10 kts 253°
2026-05-08 05:01 50.03677 8.54395 351 ft 15 kts 250°
2026-05-08 05:02 50.03638 8.54232 344 ft 17 kts 250°
2026-05-08 05:02 50.03597 8.54059 345 ft 18 kts 249°
2026-05-08 05:02 50.03551 8.53871 341 ft 19 kts 249°
2026-05-08 05:02 50.03502 8.53666 338 ft 21 kts 250°
2026-05-08 05:03 50.03451 8.53446 338 ft 22 kts 249°
2026-05-08 05:03 50.03394 8.53213 336 ft 24 kts 249°
2026-05-08 05:03 50.03338 8.52978 335 ft 22 kts 249°
2026-05-08 05:03 50.03286 8.52762 332 ft 21 kts 249°
2026-05-08 05:04 50.03252 8.52621 335 ft 9 kts 249°
2026-05-08 05:04 50.03196 8.52594 336 ft 10 kts 179°
2026-05-08 05:04 50.03036 8.52597 331 ft 53 kts 179°
2026-05-08 05:04 50.02376 8.52603 335 ft 133 kts 180°
2026-05-08 05:05 50.01266 8.52617 560 ft 170 kts 178°
2026-05-08 05:05 50.00082 8.52621 1356 ft 171 kts 178°
2026-05-08 05:05 49.98868 8.52678 2047 ft 183 kts 177°
2026-05-08 05:05 49.97518 8.52651 2507 ft 206 kts 181°
2026-05-08 05:06 49.96000 8.52548 2970 ft 231 kts 182°
2026-05-08 05:06 49.94305 8.52417 3615 ft 254 kts 183°
2026-05-08 05:06 49.92531 8.52277 4575 ft 262 kts 183°
2026-05-08 05:06 49.90687 8.52135 5636 ft 268 kts 184°
2026-05-08 05:07 49.88811 8.51995 6704 ft 272 kts 184°
2026-05-08 05:07 49.86901 8.51852 7713 ft 277 kts 184°
2026-05-08 05:07 49.84963 8.51709 8724 ft 281 kts 184°
2026-05-08 05:07 49.82992 8.51569 9734 ft 286 kts 184°
2026-05-08 05:08 49.80974 8.51427 10505 ft 299 kts 184°
2026-05-08 05:08 49.78814 8.51275 10897 ft 323 kts 184°
2026-05-08 05:08 49.76520 8.51117 11538 ft 335 kts 184°
2026-05-08 05:08 49.74173 8.50959 12408 ft 340 kts 184°
2026-05-08 05:09 49.71793 8.50980 13268 ft 345 kts 179°
2026-05-08 05:09 49.69384 8.51174 14113 ft 349 kts 178°
2026-05-08 05:09 49.66952 8.51431 14881 ft 353 kts 177°
2026-05-08 05:09 49.64488 8.51721 15625 ft 357 kts 177°
2026-05-08 05:10 49.62001 8.52018 16375 ft 361 kts 177°
2026-05-08 05:10 49.56933 8.52606 17871 ft 369 kts 178°
2026-05-08 05:10 49.54355 8.52887 18580 ft 373 kts 178°
2026-05-08 05:11 49.51752 8.53164 18970 ft 376 kts 178°
2026-05-08 05:11 49.49165 8.53435 19085 ft 377 kts 178°
2026-05-08 05:11 49.46538 8.53710 19111 ft 379 kts 178°
2026-05-08 05:11 49.43910 8.53986 19030 ft 376 kts 178°
2026-05-08 05:12 49.41327 8.54259 18779 ft 368 kts 178°
2026-05-08 05:12 49.38785 8.54527 18542 ft 365 kts 178°
2026-05-08 05:12 49.36256 8.54792 18290 ft 363 kts 178°
2026-05-08 05:12 49.33747 8.55053 18015 ft 362 kts 178°
2026-05-08 05:13 49.31233 8.55315 17741 ft 360 kts 178°
2026-05-08 05:13 49.28734 8.55576 17467 ft 359 kts 178°
2026-05-08 05:13 49.26245 8.55838 17200 ft 358 kts 178°
2026-05-08 05:13 49.23764 8.56102 16933 ft 356 kts 178°
2026-05-08 05:14 49.21299 8.56366 16665 ft 355 kts 178°
2026-05-08 05:14 49.18834 8.56627 16397 ft 354 kts 178°
2026-05-08 05:14 49.16375 8.56885 16136 ft 353 kts 178°
2026-05-08 05:14 49.13964 8.57135 15888 ft 351 kts 178°
2026-05-08 05:15 49.11548 8.57386 15494 ft 346 kts 178°
2026-05-08 05:15 49.09155 8.57636 15034 ft 344 kts 178°
2026-05-08 05:15 49.06773 8.57882 14575 ft 342 kts 178°
2026-05-08 05:15 49.04398 8.58129 14113 ft 341 kts 178°
2026-05-08 05:16 49.02039 8.58380 13618 ft 340 kts 178°
2026-05-08 05:16 48.99690 8.58632 13137 ft 337 kts 178°
2026-05-08 05:16 48.97360 8.58878 12663 ft 334 kts 178°
2026-05-08 05:16 48.95053 8.59116 12192 ft 331 kts 178°
2026-05-08 05:17 48.92762 8.59348 11719 ft 329 kts 178°
2026-05-08 05:17 48.90480 8.59580 11249 ft 327 kts 178°
2026-05-08 05:17 48.88215 8.59810 10773 ft 325 kts 178°
2026-05-08 05:17 48.85971 8.60039 10424 ft 319 kts 178°
2026-05-08 05:18 48.83835 8.60544 10299 ft 304 kts 165°
2026-05-08 05:18 48.81932 8.61825 10075 ft 298 kts 149°
2026-05-08 05:18 48.80350 8.63812 9930 ft 295 kts 133°
2026-05-08 05:18 48.79058 8.66247 9521 ft 298 kts 128°
2026-05-08 05:19 48.77786 8.68710 9037 ft 294 kts 129°
2026-05-08 05:19 48.76523 8.71144 8467 ft 293 kts 129°
2026-05-08 05:19 48.75273 8.73544 8022 ft 287 kts 129°
2026-05-08 05:19 48.74074 8.75844 7862 ft 268 kts 130°
2026-05-08 05:20 48.72962 8.77976 7732 ft 248 kts 130°
2026-05-08 05:20 48.71927 8.79959 7552 ft 233 kts 130°
2026-05-08 05:20 48.70933 8.81860 7213 ft 228 kts 130°
2026-05-08 05:20 48.69943 8.83742 6719 ft 232 kts 130°
2026-05-08 05:21 48.68927 8.85669 6090 ft 237 kts 130°
2026-05-08 05:21 48.67891 8.87636 5443 ft 241 kts 130°
2026-05-08 05:21 48.66860 8.89602 5052 ft 234 kts 129°
2026-05-08 05:21 48.65885 8.91465 4892 ft 218 kts 130°
2026-05-08 05:22 48.64973 8.93218 4779 ft 207 kts 127°
2026-05-08 05:22 48.64372 8.95143 4637 ft 201 kts 105°
2026-05-08 05:22 48.64270 8.97224 4426 ft 198 kts 84°
2026-05-08 05:22 48.64587 8.99188 4213 ft 188 kts 75°
2026-05-08 05:23 48.64948 9.01056 3943 ft 183 kts 75°
2026-05-08 05:23 48.65299 9.02882 3699 ft 180 kts 75°
2026-05-08 05:23 48.65642 9.04668 3461 ft 173 kts 75°
2026-05-08 05:23 48.65969 9.06376 3237 ft 165 kts 75°
2026-05-08 05:24 48.66281 9.08004 3015 ft 157 kts 75°
2026-05-08 05:24 48.66572 9.09525 2806 ft 149 kts 74°
2026-05-08 05:24 48.66852 9.10989 2596 ft 141 kts 74°
2026-05-08 05:24 48.67121 9.12398 2403 ft 138 kts 73°
2026-05-08 05:25 48.67386 9.13788 2204 ft 137 kts 73°
2026-05-08 05:25 48.67651 9.15176 2016 ft 137 kts 73°
2026-05-08 05:25 48.67916 9.16564 1838 ft 137 kts 73°
2026-05-08 05:25 48.68179 9.17943 1653 ft 136 kts 73°
2026-05-08 05:26 48.68441 9.19324 1479 ft 136 kts 73°
2026-05-08 05:26 48.68703 9.20697 1307 ft 134 kts 73°
2026-05-08 05:26 48.68934 9.21900 1287 ft 99 kts 74°
2026-05-08 05:26 48.69071 9.22639 1285 ft 41 kts 75°
2026-05-08 05:27 48.69156 9.22914 1285 ft 25 kts 56°
2026-05-08 05:27 48.69253 9.23076 1288 ft 13 kts 44°
2026-05-08 05:27 48.69311 9.23156 1285 ft 10 kts 33°
2026-05-08 05:27 48.69378 9.23139 1285 ft 11 kts 336°
2026-05-08 05:28 48.69409 9.23044 1287 ft 11 kts 266°
2026-05-08 05:28 48.69386 9.22926 1287 ft 12 kts 253°
2026-05-08 05:28 48.69361 9.22796 1286 ft 13 kts 254°
2026-05-08 05:28 48.69335 9.22655 1289 ft 14 kts 254°
2026-05-08 05:29 48.69306 9.22502 1289 ft 16 kts 255°
2026-05-08 05:29 48.69274 9.22338 1288 ft 17 kts 253°
2026-05-08 05:29 48.69241 9.22162 1285 ft 18 kts 254°
2026-05-08 05:29 48.69206 9.21975 1289 ft 19 kts 254°
2026-05-08 05:30 48.69171 9.21790 1288 ft 17 kts 253°
2026-05-08 05:30 48.69140 9.21627 1285 ft 15 kts 253°
2026-05-08 05:30 48.69112 9.21482 1285 ft 15 kts 253°
2026-05-08 05:30 48.69083 9.21327 1285 ft 16 kts 254°
2026-05-08 05:31 48.69051 9.21158 1285 ft 17 kts 253°
2026-05-08 05:31 48.69016 9.20975 1288 ft 19 kts 253°
2026-05-08 05:31 48.68978 9.20775 1285 ft 20 kts 254°
2026-05-08 05:31 48.68937 9.20561 1285 ft 22 kts 254°
2026-05-08 05:32 48.68894 9.20333 1285 ft 23 kts 254°
2026-05-08 05:32 48.68851 9.20106 1285 ft 23 kts 254°
2026-05-08 05:32 48.68821 9.19944 1285 ft 11 kts 260°
2026-05-08 05:32 48.68868 9.19865 1288 ft 11 kts 342°
2026-05-08 05:33 48.68881 9.19783 1285 ft 9 kts 252°
2026-05-08 05:33 48.68863 9.19687 1285 ft 10 kts 254°
2026-05-08 05:33 48.68844 9.19587 1289 ft 9 kts 254°
2026-05-08 05:33 48.68827 9.19500 1287 ft 8 kts 254°
2026-05-08 05:34 48.68843 9.19451 1287 ft 5 kts 346°
2026-05-08 05:34 48.68872 9.19441 1285 ft 3 kts 342°
2026-05-08 05:34 48.68888 9.19433 1287 ft 2 kts 343°
2026-05-08 05:34 48.68894 9.19430 1289 ft 0 kts 343°
2026-05-08 05:35 48.68895 9.19430 1289 ft 0 kts 343°
2026-05-08 05:35 48.68896 9.19429 1288 ft 0 kts 343°